Weather History for KMPV - November, 2010

Change the Weather History Date:

Tuesday, November 2, 2010

  Actual Average Record
Temperature  
Mean Temperature 31 °F 40 °F  
Max Temperature 39 °F 50 °F 76 °F (1950)
Min Temperature 25 °F 31 °F 11 °F (1949)
Degree Days  
Heating Degree Days 34 25  
Month to date heating degree days 50  
Since 1 July heating degree days 1006  
Cooling Degree Days 0 0  
Month to date cooling degree days 0  
Year to date cooling degree days 264  
Moisture  
Dew Point 26 °F    
Average Humidity 77    
Maximum Humidity 89    
Minimum Humidity 59    
Precipitation  
Precipitation 0.00 in 0.12 in 0.80 in (1988)
Month to date precipitation 0.23  
Year to date precipitation 31.59  
Sea Level Pressure  
Sea Level Pressure 30.45 in    
Wind  
Wind Speed 6 mph (NW)    
Max Wind Speed 10 mph    
Max Gust Speed -    
Visibility 10 miles    
Events      
T = Trace of Precipitation, MM = Missing Value Source: NWS Daily Summary

Daily Weather History Graph

Daily Weather History Graph

Search for Another Location

Airport or City:

Trip Planner

Search our weather history database for the weather conditions in past years. The results will help you decide how hot, cold, wet, or windy it might be!

Date:

Astronomy

Nov. 02, 2010 Rise Set
Actual Time 7:28 AM EDT 5:38 PM EDT
Civil Twilight 6:58 AM EDT 6:08 PM EDT
Nautical Twilight 6:23 AM EDT 6:43 PM EDT
Astronomical Twilight 5:50 AM EDT 7:16 PM EDT
Moon 3:03 AM EDT (11/2) 3:22 PM EDT (11/2)
Length of Visible Light 11h 10m
Length of Day
10h 10m
Waning Crescent, 17% of the Moon is Illuminated
Nov 2
Waning Crescent
Nov 6
New
Nov 13
First Quarter
Nov 21
Full
Nov 28
Last Quarter

Hourly Weather History & Observations

Time (EDT) Temp. Windchill Dew Point Humidity Pressure Visibility Wind Dir Wind Speed Gust Speed Precip Events Conditions
12:51 AM 34.0 °F 28.8 °F 30.0 °F 85% 30.44 in 10.0 mi WNW 5.8 mph - N/A   Overcast
1:51 AM 34.0 °F 28.0 °F 30.9 °F 89% 30.45 in 10.0 mi WNW 6.9 mph - N/A   Overcast
2:30 AM 33.8 °F 27.0 °F 30.2 °F 87% 30.40 in 10.0 mi NW 8.1 mph - N/A   Overcast
2:51 AM 34.0 °F 28.8 °F 30.9 °F 89% 30.45 in 10.0 mi NW 5.8 mph - N/A   Overcast
3:51 AM 34.0 °F 28.8 °F 30.0 °F 85% 30.44 in 10.0 mi WNW 5.8 mph - N/A   Overcast
4:51 AM 34.0 °F 26.0 °F 30.0 °F 85% 30.45 in 10.0 mi WNW 10.4 mph - N/A   Overcast
5:51 AM 34.0 °F 28.0 °F 28.9 °F 82% 30.45 in 10.0 mi NW 6.9 mph - N/A   Overcast
6:51 AM 33.1 °F 26.9 °F 28.0 °F 82% 30.46 in 10.0 mi NW 6.9 mph - N/A   Overcast
7:51 AM 33.1 °F 27.7 °F 28.0 °F 82% 30.48 in 10.0 mi NNW 5.8 mph - N/A   Overcast
8:51 AM 34.0 °F 28.8 °F 27.0 °F 75% 30.49 in 10.0 mi NNW 5.8 mph - N/A   Overcast
9:51 AM 35.1 °F 30.1 °F 26.1 °F 70% 30.50 in 10.0 mi NNW 5.8 mph - N/A   Overcast
10:25 AM 35.6 °F 29.9 °F 26.6 °F 70% 30.46 in 10.0 mi North 6.9 mph - N/A   Overcast
10:51 AM 35.1 °F 29.3 °F 26.1 °F 70% 30.50 in 10.0 mi North 6.9 mph - N/A   Overcast
11:51 AM 37.0 °F 31.6 °F 24.1 °F 59% 30.49 in 10.0 mi NW 6.9 mph - N/A   Overcast
12:51 PM 37.0 °F 31.6 °F 25.0 °F 62% 30.47 in 10.0 mi NW 6.9 mph - N/A   Overcast
1:51 PM 37.9 °F 32.1 °F 26.1 °F 62% 30.46 in 10.0 mi North 8.1 mph - N/A   Overcast
2:51 PM 37.0 °F 31.6 °F 26.1 °F 65% 30.46 in 10.0 mi NW 6.9 mph - N/A   Overcast
3:51 PM 37.0 °F 31.6 °F 25.0 °F 62% 30.45 in 10.0 mi NW 6.9 mph - N/A   Overcast
4:51 PM 36.0 °F 32.1 °F 25.0 °F 64% 30.46 in 10.0 mi NW 4.6 mph - N/A   Overcast
5:51 PM 33.1 °F 30.0 °F 24.1 °F 70% 30.45 in 10.0 mi North 3.5 mph - N/A   Scattered Clouds
6:51 PM 28.4 °F - 23.0 °F 80% 30.40 in 10.0 mi Calm Calm - N/A   Clear
7:51 PM 27.0 °F - 21.9 °F 81% 30.45 in 10.0 mi Calm Calm - N/A   Clear
8:51 PM 26.1 °F 21.9 °F 21.9 °F 84% 30.43 in 10.0 mi WSW 3.5 mph - N/A   Clear
9:51 PM 26.1 °F - 21.9 °F 84% 30.42 in 10.0 mi Calm Calm - N/A   Clear
10:51 PM 25.0 °F - 21.9 °F 88% 30.42 in 10.0 mi Calm Calm - N/A   Clear
11:51 PM 25.0 °F - 21.9 °F 88% 30.40 in 10.0 mi Calm Calm - N/A   Clear